Weather History for Alamogordo, NM

Change the Weather History Date:

Tuesday, December 3, 2013

  Actual Average Record
Temperature  
Mean Temperature 54 °F -  
Max Temperature 68 °F 59 °F 73 °F (1954)
Min Temperature 41 °F 30 °F 18 °F (1968)
Degree Days  
Heating Degree Days 10    
Growing Degree Days 4 (Base 50)    
Moisture  
Dew Point 19 °F    
Average Humidity 28    
Maximum Humidity 61    
Minimum Humidity 11    
Precipitation  
Precipitation 0.00 in - - ()
Sea Level Pressure  
Sea Level Pressure 29.83 in    
Wind  
Wind Speed 7 mph (SSE)    
Max Wind Speed 17 mph    
Max Gust Speed 18 mph    
Visibility 10 miles    
Events Rain    
Averages and records for this station are not official NWS values.
T = Trace of Precipitation, MM = Missing Value Source: NWS Daily Summary

Daily Weather History Graph

Daily Weather History Graph

Search for Another Location

Airport:

Trip Planner

Search our weather history database for the weather conditions in past years. The results will help you decide how hot, cold, wet, or windy it might be!

Date:

Astronomy

Dec. 03, 2013 Rise Set
Actual Time 6:50 AM MST 4:57 PM MST
Civil Twilight 6:23 AM MST 5:24 PM MST
Nautical Twilight 5:52 AM MST 5:54 PM MST
Astronomical Twilight 5:22 AM MST 6:24 PM MST
Moon 7:23 AM MST (12/3) 6:02 PM MST (12/3)
Length of Visible Light 11h 00m
Length of Day
10h 06m
New Moon, 1% of the Moon is Illuminated
Dec 3
New Moon
Dec 9
First Quarter
Dec 17
Full
Dec 25
Last Quarter
Jan 1
New

Hourly Weather History & Observations

Time (MST) Temp. Windchill Dew Point Humidity Pressure Visibility Wind Dir Wind Speed Gust Speed Precip Events Conditions
12:15 AM 42.8 °F 38.0 °F 23.0 °F 46% 29.89 in 10.0 mi SSE 8.1 mph - N/A   Clear
12:35 AM 44.6 °F 43.1 °F 21.2 °F 39% 29.89 in 10.0 mi South 3.5 mph - N/A   Clear
12:55 AM 44.6 °F - 19.4 °F 37% 29.89 in 10.0 mi Calm Calm - N/A   Clear
1:15 AM 44.6 °F 40.7 °F 21.2 °F 39% 29.89 in 10.0 mi SE 6.9 mph - N/A   Clear
1:35 AM 44.6 °F 40.2 °F 23.0 °F 43% 29.89 in 10.0 mi SSE 8.1 mph - N/A   Clear
1:55 AM 42.8 °F 38.6 °F 23.0 °F 46% 29.88 in 10.0 mi SSE 6.9 mph - N/A   Clear
2:15 AM 42.8 °F 37.5 °F 23.0 °F 46% 29.88 in 10.0 mi SSE 9.2 mph - N/A   Clear
2:35 AM 44.6 °F 40.7 °F 23.0 °F 43% 29.88 in 10.0 mi SSE 6.9 mph - N/A   Clear
2:55 AM 41.0 °F 37.1 °F 23.0 °F 49% 29.87 in 10.0 mi SSE 5.8 mph - N/A   Clear
3:15 AM 44.6 °F 41.4 °F 19.4 °F 37% 29.87 in 10.0 mi South 5.8 mph - N/A   Clear
3:35 AM 42.8 °F 38.6 °F 23.0 °F 46% 29.86 in 10.0 mi SSE 6.9 mph - N/A   Clear
3:55 AM 42.8 °F 41.1 °F 21.2 °F 42% 29.85 in 10.0 mi SSE 3.5 mph - N/A   Clear
4:15 AM 46.4 °F 45.2 °F 19.4 °F 34% 29.85 in 10.0 mi East 3.5 mph - N/A   Clear
4:35 AM 42.8 °F 40.1 °F 23.0 °F 46% 29.84 in 10.0 mi East 4.6 mph - N/A   Clear
4:55 AM 42.8 °F 41.1 °F 26.6 °F 53% 29.84 in 10.0 mi NNE 3.5 mph - N/A   Clear
5:15 AM 44.6 °F 42.2 °F 24.8 °F 46% 29.85 in 10.0 mi North 4.6 mph - N/A   Clear
5:35 AM 41.0 °F - 26.6 °F 57% 29.85 in 10.0 mi Calm Calm - N/A   Clear
5:55 AM 41.0 °F - 28.4 °F 61% 29.85 in 10.0 mi Calm Calm - N/A   Clear
6:15 AM 42.8 °F 40.1 °F 24.8 °F 49% 29.85 in 10.0 mi SSE 4.6 mph - N/A   Clear
6:35 AM 44.6 °F - 21.2 °F 39% 29.86 in 10.0 mi Calm Calm - N/A   Clear
6:55 AM 41.0 °F - 24.8 °F 53% 29.88 in 10.0 mi Calm Calm - N/A   Clear
7:15 AM 41.0 °F 38.0 °F 24.8 °F 53% 29.88 in 10.0 mi SSE 4.6 mph - N/A   Clear
7:35 AM 41.0 °F 37.1 °F 24.8 °F 53% 29.88 in 10.0 mi SE 5.8 mph - N/A   Clear
7:55 AM 44.6 °F - 26.6 °F 49% 29.88 in 10.0 mi Calm Calm - N/A   Clear
8:15 AM 50.0 °F - 23.0 °F 35% 29.88 in 10.0 mi SE 3.5 mph - N/A   Clear
8:35 AM 53.6 °F - 23.0 °F 30% 29.88 in 10.0 mi SSE 8.1 mph - N/A   Clear
8:55 AM 55.4 °F - 24.8 °F 31% 29.88 in 10.0 mi South 4.6 mph - N/A   Clear
9:15 AM 55.4 °F - 23.0 °F 29% 29.88 in 10.0 mi South 8.1 mph - N/A   Clear
9:35 AM 59.0 °F - 23.0 °F 25% 29.89 in 10.0 mi South 6.9 mph - N/A   Clear
9:55 AM 62.6 °F - 21.2 °F 20% 29.88 in 10.0 mi South 4.6 mph - N/A Rain Light Rain
10:15 AM 62.6 °F - 17.6 °F 18% 29.88 in 10.0 mi SW 4.6 mph - N/A   Clear
10:35 AM 62.6 °F - 17.6 °F 18% 29.87 in 10.0 mi SW 5.8 mph - N/A Rain Light Rain
10:55 AM 64.4 °F - 19.4 °F 18% 29.87 in 10.0 mi South 4.6 mph - N/A Rain Light Rain
11:15 AM 66.2 °F - 19.4 °F 17% 29.85 in 10.0 mi South 5.8 mph - N/A   Clear
11:35 AM 66.2 °F - 17.6 °F 15% 29.84 in 10.0 mi SW 9.2 mph - N/A   Clear
11:55 AM 66.2 °F - 17.6 °F 15% 29.82 in 10.0 mi SSW 12.7 mph - N/A   Clear
12:15 PM 66.2 °F - 17.6 °F 15% 29.81 in 10.0 mi South 9.2 mph - N/A   Clear
12:35 PM 66.2 °F - 17.6 °F 15% 29.80 in 10.0 mi WSW 6.9 mph - N/A   Clear
12:55 PM 66.2 °F - 17.6 °F 15% 29.80 in 10.0 mi SSW 5.8 mph - N/A   Clear
1:15 PM 68.0 °F - 17.6 °F 15% 29.79 in 10.0 mi SSW 6.9 mph - N/A   Clear
1:35 PM 68.0 °F - 17.6 °F 15% 29.78 in 10.0 mi South 6.9 mph - N/A   Clear
1:55 PM 68.0 °F - 15.8 °F 13% 29.77 in 10.0 mi SSW 9.2 mph - N/A   Clear
2:15 PM 68.0 °F - 15.8 °F 13% 29.77 in 10.0 mi SSW 9.2 mph - N/A   Clear
2:35 PM 68.0 °F - 12.2 °F 12% 29.76 in 10.0 mi SSW 5.8 mph - N/A   Clear
2:55 PM 68.0 °F - 15.8 °F 13% 29.76 in 10.0 mi SSE 8.1 mph - N/A   Clear
3:15 PM 66.2 °F - 14.0 °F 13% 29.75 in 10.0 mi SSW 9.2 mph - N/A   Clear
3:35 PM 66.2 °F - 14.0 °F 13% 29.75 in 10.0 mi SSE 16.1 mph - N/A   Clear
3:55 PM 64.4 °F - 14.0 °F 14% 29.75 in 10.0 mi SE 8.1 mph - N/A   Clear
4:15 PM 66.2 °F - 14.0 °F 13% 29.75 in 10.0 mi SSE 9.2 mph - N/A   Clear
4:35 PM 66.2 °F - 10.4 °F 11% 29.75 in 10.0 mi South 13.8 mph 18.4 mph N/A   Clear
4:55 PM 62.6 °F - 10.4 °F 13% 29.76 in 10.0 mi South 9.2 mph - N/A   Clear
5:15 PM 62.6 °F - 10.4 °F 13% 29.76 in 10.0 mi South 17.3 mph - N/A   Clear
5:35 PM 62.6 °F - 8.6 °F 12% 29.77 in 10.0 mi South 15.0 mph - N/A   Clear
5:55 PM 57.2 °F - 12.2 °F 17% 29.78 in 10.0 mi SSE 10.4 mph - N/A   Clear
6:15 PM 59.0 °F - 10.4 °F 15% 29.80 in 10.0 mi South 12.7 mph - N/A   Clear
6:35 PM 60.8 °F - 6.8 °F 12% 29.80 in 10.0 mi SSW 10.4 mph - N/A   Clear
6:55 PM 62.6 °F - 8.6 °F 12% 29.80 in 10.0 mi South 11.5 mph 18.4 mph N/A   Clear
7:15 PM 59.0 °F - 10.4 °F 15% 29.80 in 10.0 mi South 13.8 mph - N/A   Clear
7:35 PM 62.6 °F - 10.4 °F 13% 29.80 in 10.0 mi SSW 8.1 mph - N/A   Clear
7:55 PM 57.2 °F - 12.2 °F 17% 29.79 in 10.0 mi SSE 12.7 mph - N/A   Clear
8:15 PM 55.4 °F - 15.8 °F 21% 29.79 in 10.0 mi SE 10.4 mph - N/A   Clear
8:35 PM 51.8 °F - 15.8 °F 24% 29.79 in 10.0 mi SE 9.2 mph - N/A   Clear
8:55 PM 53.6 °F - 17.6 °F 24% 29.79 in 10.0 mi SE 6.9 mph - N/A   Clear
9:15 PM 51.8 °F - 19.4 °F 28% 29.79 in 10.0 mi SE 8.1 mph - N/A   Clear
9:35 PM 53.6 °F - 15.8 °F 22% 29.79 in 10.0 mi SE 6.9 mph - N/A   Clear
9:55 PM 51.8 °F - 17.6 °F 26% 29.79 in 10.0 mi SSE 6.9 mph - N/A   Clear
10:15 PM 50.0 °F - 17.6 °F 28% 29.79 in 10.0 mi SSE 8.1 mph - N/A   Clear
10:35 PM 50.0 °F - 17.6 °F 28% 29.80 in 10.0 mi SSE 5.8 mph - N/A   Clear
10:55 PM 50.0 °F - 21.2 °F 32% 29.81 in 10.0 mi SSE 9.2 mph - N/A   Clear
11:15 PM 48.2 °F - 23.0 °F 37% 29.81 in 10.0 mi South 9.2 mph - N/A   Clear
11:35 PM 48.2 °F - 21.2 °F 34% 29.81 in 10.0 mi SSE 8.1 mph - N/A   Clear
11:55 PM 48.2 °F - 21.2 °F 34% 29.82 in 10.0 mi SSE 6.9 mph - N/A   Clear